Location: Bukit Lungun
(2.6833°N, 113.9667°E)
Time: 14:37:18
(UTC+00:00)

Cosmos 1980 Rocket - Pass Details

Date: 02 March 2021
Orbit: 828 x 851 km, 71.0° (Epoch: 13 April)

Event Time Altitude Azimuth Distance (km) Brightness Sun altitude
Exits shadow 19:49:33 21° 92° (E) 1,826 4.4 -41.7°
Drops below altitude 10° 19:52:33 10° 123° (ESE) 2,454 5.2 -40.9°
Sets 19:55:31 0° 138° (SE) 3,386 5.9 -40.2°
